Regional Weather Roundup
Issued by NWS

Home | Current Version | Previous Version | Graphics & Text | Print | Product List | Glossary On
Versions: 1 2 3 4 5 6 7 8 9 10 11 12 13 14 15 16 17 18 19 20 21 22 23 24 25 26 27 28 29 30 31 32 33 34 35 36 37 38 39 40 41 42 43 44 45 46 47 48 49 50
302
ASUS45 KTFX 240210
RWRMT
MONTANA REGIONAL WEATHER ROUNDUP
NATIONAL WEATHER SERVICE GREAT FALLS MT
700 PM MST MON JAN 23 2017

NOTE: "FAIR" INDICATES FEW OR NO CLOUDS BELOW 12000 FEET WITH NO
SIGNIFICANT WEATHER AND/OR OBSTRUCTIONS TO VISIBILITY.

MTZ001>007-043-240300-
WEST OF THE DIVIDE

CITY           SKY/WX    TMP DP  RH WIND       PRES   REMARKS
KALISPELL      PTCLDY    21  17  84 W5        29.76R
MISSOULA       CLOUDY    32  24  72 N6        29.75R WCI  26
BUTTE          CLOUDY    20  14  77 NE5       29.64R
MULLAN PASS    CLOUDY    21  19  92 MISG      29.65R
ANACONDA         N/A     19  12  73 N9        29.69R WCI   9
DEER LODGE       N/A     19  12  73 N10       29.74R WCI   8
EUREKA           N/A     21  19  93 CALM      29.79S
HAMILTON         N/A     25  19  80 CALM      29.71R
RONAN            N/A     25  23  91 CALM      29.81R
$$

MTZ008-052>055-240300-
SOUTHWEST MONTANA

CITY           SKY/WX    TMP DP  RH WIND       PRES   REMARKS
BOZEMAN        CLOUDY    21  19  92 NW5       29.69R
DILLON         CLOUDY    20  14  77 NE17      29.60S WCI   5
W YELLOWSTONE  CLOUDY    23  16  74 N10G17    29.49R WCI  12
ENNIS          CLOUDY    19  18  93 N21G29    29.63S WCI   3
TWIN BRIDGES     N/A     22  13  68 NW25      29.64R WCI   5
$$

MTZ009-010-012-014-046-048-049-054-240300-
EAST SLOPES AND CENTRAL MONTANA

CITY           SKY/WX    TMP DP  RH WIND       PRES   REMARKS
CUT BANK       FOG        6   5  95 NW5       29.79S VSB 1/2
GREAT FALLS    CLOUDY    18  15  88 N5        29.80R
MALMSTROM AFB  CLOUDY    18  17  95 N5        29.83R
HELENA         CLOUDY    23  16  74 W9        29.77R WCI  13
BOWMANS CRNR   CLOUDY    17  17  97 NE9       29.75R WCI   6
CHOTEAU          N/A     19  19 100 CALM      29.81R
CONRAD           N/A     20  19  96 CALM      29.84S
POWER          MOCLDY    17  16  95 N7        29.79R FOG     WCI   7
RAYNESFORD     FLURRIES  19  17  95 NW5       29.78R
ULM            FLURRIES  20  18  91 MISG      29.81R
$$

MTZ011-013-016-021-045-047-050-051-240300-
NORTH CENTRAL MONTANA

CITY           SKY/WX    TMP DP  RH WIND       PRES   REMARKS
HAVRE          CLOUDY    21  17  84 W6        29.85S WCI  13
LEWISTOWN      FLURRIES  20  17  88 W5        29.76R
CHINOOK          N/A     21  18  86 SW7       29.85S WCI  13
DENTON         CLOUDY    20  19  96 N10       29.76R FOG     WCI   8
FORT BENTON      N/A     21  18  86 MISG      29.86R
GEYSER         FLURRIES  21  18  90 NW6       29.76R WCI  13
GRASS RANGE    FLURRIES  23  19  83 W9        29.73R WCI  13
JUDITH GAP     FLURRIES  19  17  93 N16       29.72R WCI   4
ROY            FLURRIES  20  19  94 MISG      29.77R
STANFORD       LGT SNOW  19  19  98 CALM      29.75R
WINIFRED       CLOUDY    19  18  97 W7        29.78R WCI  10
$$

MTZ017>020-022>027-061-062-240300-
NORTHEAST MONTANA

CITY           SKY/WX    TMP DP  RH WIND       PRES   REMARKS
GLASGOW        CLOUDY    22  18  85 NW7       29.82R WCI  13
JORDAN           N/A     24  20  84 N7        29.80R WCI  16
SIDNEY         FLURRIES  21  19  92 NE6       29.83R WCI  13
WOLF POINT     CLOUDY    24  21  88 W3        29.83S
PLENTYWOOD       N/A     21  18  86 NW10      29.80R WCI  10
POPLAR           N/A     23  19  86 W3        29.83S
$$

MTZ028>42-056>058-240300-
SOUTHCENTRAL AND SOUTHEAST MONTANA

CITY           SKY/WX    TMP DP  RH WIND       PRES   REMARKS
BAKER          FOG       21  18  88 CALM      29.76S VSB 3/4
BILLINGS       FLURRIES  24  21  88 CALM      29.75R
LIVINGSTON     LGT SNOW  24  19  81 E22       29.67S WCI   9
MILES CITY     FOG       23  20  88 CALM      29.79R VSB 1
BIG TIMBER     CLOUDY    23  21  93 E5        29.74S
EKALAKA          N/A     15  10  80 CALM      29.73R VSB 0
FORSYTH          N/A     23  23 100 CALM      29.79R
HARLOWTON      CLOUDY    21  18  85 N22       29.70R WCI   5
LAUREL           N/A     23  17  78 CALM      29.76R
$$

REGIONAL REPORTS...DAKOTAS

CITY           SKY/WX    TMP DP  RH WIND       PRES   REMARKS
WILLISTON      CLOUDY    22  18  85 W5        29.82S
MINOT          CLOUDY    23  18  81 W10       29.79R WCI  12
DICKINSON      CLOUDY    23  21  92 CALM      29.75R
BEACH          CLOUDY    23  23 100 CALM      29.81R FOG
CROSBY         CLOUDY    21  19  93 NW10      29.82R WCI  10
TIOGA          CLOUDY    19  19 100 W9        29.80S WCI   9
WATFORD CITY   MOCLDY    19  18  93 NW6       29.81S WCI  11
BISMARCK       CLOUDY    31  24  75 N6        29.82R WCI  25
GRAND FORKS    CLOUDY    29  22  75 W12       29.81S WCI  19
FARGO          CLOUDY    33  27  78 CALM      29.83S
BUFFALO SD       N/A     24  20  84 CALM      29.68R
RAPID CITY     CLOUDY    23  21  92 N14       29.71R FOG     WCI  11
$$

REGIONAL REPORTS...WYOMING/IDAHO/WASHINGTON

CITY           SKY/WX    TMP DP  RH WIND       PRES   REMARKS
GILLETTE       CLOUDY    20  17  88 N9        29.65R WCI   9
SHERIDAN       CLOUDY    19  16  88 NW13      29.72R WCI   6
BUFFALO WY     CLOUDY    19  15  84 N14G23    29.65R WCI   6
CODY           CLOUDY    22  18  85 N10G17    29.63R WCI  11
YELLOWSTONE LA   N/A     21  14  74 VRB5      29.47R
IDAHO FALLS    LGT SNOW  27  26  96 NW18      29.45R VSB 1   WCI  14
SALMON         CLOUDY    12  10  92 CALM      29.64S
BOISE          CLOUDY    29  25  85 NW13      29.67R WCI  19
SPOKANE        MOCLDY    29  27  92 W5        29.79R
$$

REGIONAL REPORTS...ALBERTA

CITY           SKY/WX    TMP DP  RH WIND       PRES   REMARKS
EDMONTON       CLOUDY    14   7  73 W2        29.89R FOG
CALGARY        CLOUDY    23  21  93 S3        29.79S FOG
LETHBRIDGE     MOCLDY    21  18  86 SW2       29.81S
MEDICINE HAT   CLOUDY    19  16  86 NW9       29.86R WCI   9
CARDSTON         N/A     14  12  92 SW8         N/A  WCI   3
$$

REGIONAL REPORTS...SASKATCHEWAN

CITY           SKY/WX    TMP DP  RH WIND       PRES   REMARKS
SWIFT CURRENT  CLOUDY    12  12 100 NW8       29.79R WCI   1
REGINA         CLOUDY    18  12  79 NW15      29.79R WCI   3
SASKATOON      FLURRIES  10   7  85 NW7       29.86S WCI   0
CYPRESS HILLS    N/A     12  10  92 NW1         N/A
VAL MARIE        N/A     19  16  86 N8          N/A  WCI   9
ROCKGLEN         N/A     18  16  93 NW7         N/A  WCI   8
ASSINIBOIA       N/A     12  10  92 CALM        N/A
$$




USA.gov is the U.S. government's official web portal to all federal, state and local government web resources and services.